Home   Weather   Shizuoka   Past weeks
Flag for Japan

Past Weather in Shizuoka, Japan — Yesterday and Last 2 Weeks

Now
38 °F

Chilly.


Feels Like: 30 °F
Forecast: 56 / 34 °F
Wind: 12 mph from Northwest

Location: Omaezaki

Current Time: Jan 23, 2019 at 6:25:37 am

Latest Report: Jan 23, 2019 at 5:00 am


Visibility: 13 mi

Pressure: 29.98 "Hg

Humidity: 53%

Dew Point: 22 °F

Location of ShizuokaLocation

Past Weather in Shizuoka — Graph

°F

Shizuoka Temperature Yesterday

Maximum temperature yesterday: 52 °F (at 3:00 pm)
Minimum temperature yesterday: 41 °F (at 11:00 pm)
Average temperature yesterday: 45 °F

High & Low Weather Summary for the Past Weeks

 TemperatureHumidityPressure
High56 °F (Jan 11, 2:00 pm)93% (Jan 15, 9:00 pm)30.25 "Hg (Jan 15, 9:00 pm)
Low35 °F (Jan 10, 7:00 am)22% (Jan 18, 1:00 pm)29.67 "Hg (Jan 20, 3:00 pm)
Average47 °F58%30.01 "Hg
* Reported Jan 8 5:00 am — Jan 23 5:00 am, Shizuoka. Weather by CustomWeather, © 2019

Note: Actual official high and low records may vary slightly from our data, if they occured in-between our weather recording intervals... More about our weather records

Advertising

Shizuoka Weather History for the Previous 24 Hours

Scroll right to see more
 ConditionsComfort  
Time TempWeatherWind HumidityBarometerVisibility
5:00 am
Wed, Jan 23
38 °FChilly.12 mph53%29.98 "Hg12 mi
4:00 am39 °FChilly.12 mph52%29.97 "Hg12 mi
3:00 am39 °FChilly.13 mph53%29.98 "Hg12 mi
2:00 am39 °FChilly.12 mph50%29.98 "Hg12 mi
1:00 am40 °FChilly.14 mph50%29.96 "Hg12 mi
12:00 am40 °FQuite cool.14 mph50%29.95 "Hg12 mi
11:00 pm
Tue, Jan 22
41 °FQuite cool.16 mph48%29.96 "Hg12 mi
10:00 pm41 °FQuite cool.15 mph47%29.95 "Hg12 mi
9:00 pm43 °FQuite cool.18 mph45%29.95 "Hg12 mi
8:00 pm44 °FQuite cool.17 mph44%29.95 "Hg12 mi
7:00 pm45 °FCool.18 mph40%29.94 "Hg12 mi
6:00 pm47 °FCool.22 mph41%29.91 "Hg12 mi
5:00 pm48 °FCool.21 mph43%29.88 "HgN/A
4:00 pm50 °FCool.25 mph39%29.86 "HgN/A
3:00 pm52 °FCool.22 mph41%29.86 "HgN/A
2:00 pm51 °FCool.22 mph46%29.87 "HgN/A
1:00 pm51 °FCool.17 mph51%29.88 "HgN/A
12:00 pm50 °FCool.16 mph52%29.89 "HgN/A
11:00 am49 °FCool.18 mph52%29.90 "HgN/A
10:00 am49 °FCool.20 mph50%29.90 "HgN/A
9:00 am46 °FCool.15 mph59%29.91 "HgN/A
8:00 am43 °FQuite cool.12 mph60%29.91 "HgN/A
7:00 am42 °FQuite cool.16 mph63%29.91 "Hg12 mi
6:00 am41 °FQuite cool.12 mph64%29.91 "Hg12 mi
Weather by CustomWeather, © 2019

See weather overview